Location: Brantford
(43.1330°N, 80.2670°W)
Time: 19:37:45
(UTC-05:00)

S-56A Canister/Altair - All Passes

Search period start: 11 November 2019 00:00
Search period end: 21 November 2019 00:00
Orbit: 634 x 2498 km, 38.9° (Epoch: 10 November)

Date Brightness Start Highest point End Pass type
(mag) Time Alt. Az. Time Alt. Az. Time Alt. Az.
11 Nov - 01:22:56 10° WSW 01:26:03 18° SSW 01:29:28 10° SSE night (unlit)
11 Nov - 18:38:05 10° SSW 18:43:43 23° SSE 18:48:04 10° ESE visible
11 Nov - 20:41:28 10° WSW 20:47:15 46° S 20:51:43 10° E visible
11 Nov - 22:45:50 10° W 22:50:33 48° S 22:54:49 10° ESE night (unlit)
12 Nov - 00:50:14 10° WSW 00:53:33 21° SSW 00:57:05 10° SSE night (unlit)
12 Nov - 18:05:10 10° SSW 18:11:02 22° SSE 18:15:34 10° ESE visible
12 Nov - 20:08:27 10° WSW 20:14:41 45° SSE 20:19:19 10° E visible
12 Nov - 22:13:01 10° W 22:18:03 51° S 22:22:21 10° ESE night (unlit)
13 Nov - 00:17:30 10° WSW 00:21:04 23° SSW 00:24:43 10° SSE night (unlit)
13 Nov - 17:32:14 10° SSW 17:38:19 21° SSE 17:43:01 10° ESE visible
13 Nov - 19:35:21 10° SW 19:42:05 44° SSE 19:46:56 10° E visible
13 Nov - 21:40:06 10° W 21:45:33 53° S 21:49:57 10° ESE visible
13 Nov - 23:44:43 10° W 23:48:36 26° SSW 23:52:22 10° SE night (unlit)
14 Nov - 16:59:17 10° SSW 17:05:32 20° SSE 17:10:25 10° ESE daylight
14 Nov - 19:02:10 10° SW 19:09:27 43° SSE 19:14:34 10° E visible
14 Nov - 21:07:06 10° W 21:13:02 55° S 21:17:33 10° ESE visible
14 Nov - 23:11:54 10° W 23:16:08 30° SSW 23:20:02 10° SE night (unlit)
15 Nov - 16:26:23 10° S 16:32:43 19° SSE 16:37:44 10° ESE daylight
15 Nov - 18:28:56 10° SW 18:36:45 41° SSE 18:42:11 10° E visible
15 Nov - 20:33:59 10° WSW 20:40:27 57° S 20:45:12 10° ESE visible
15 Nov - 22:39:01 10° W 22:43:41 34° SSW 22:47:43 10° SE night (unlit)
16 Nov - 15:53:31 10° S 15:59:52 18° SSE 16:04:59 10° ESE daylight
16 Nov - 17:55:40 10° SW 18:04:01 40° SSE 18:09:46 10° E visible
16 Nov - 20:00:47 10° WSW 20:07:51 58° S 20:12:51 10° E visible
16 Nov - 22:06:02 10° W 22:11:12 39° SSW 22:15:25 10° SE visible
17 Nov - 00:12:48 10° SW 00:13:50 11° SW 00:14:54 10° SSW night (unlit)
17 Nov - 15:20:43 10° S 15:26:58 17° SE 15:32:06 10° ESE daylight
17 Nov - 17:22:21 10° SW 17:31:14 39° SSE 17:37:21 10° E visible
17 Nov - 19:27:30 10° WSW 19:35:13 59° S 19:40:29 10° E visible
17 Nov - 21:33:00 10° W 21:38:42 44° SSW 21:43:07 10° SE visible
17 Nov - 23:39:05 10° WSW 23:41:23 13° SW 23:43:34 10° S night (unlit)
18 Nov - 14:48:01 10° S 14:54:02 16° SE 14:59:04 10° ESE daylight
18 Nov - 16:49:00 10° SW 16:58:22 37° SSE 17:04:53 10° E daylight
18 Nov - 18:54:07 10° WSW 19:02:31 59° S 19:08:08 10° E visible
18 Nov - 20:59:51 10° W 21:06:10 49° SSW 21:10:50 10° ESE visible
18 Nov - 23:05:45 10° WSW 23:08:56 17° SW 23:11:50 10° S night (unlit)
19 Nov - 14:15:31 10° S 14:21:03 14° SE 14:25:51 10° ESE daylight
19 Nov - 16:15:40 10° SW 16:25:28 36° SSE 16:32:21 10° E daylight
19 Nov - 18:20:41 10° WSW 18:29:46 58° S 18:35:46 10° E visible
19 Nov - 20:26:37 10° W 20:33:35 54° SSW 20:38:32 10° ESE visible
19 Nov - 22:32:30 10° W 22:36:29 20° SSW 22:39:54 10° SSE night (unlit)
20 Nov - 13:43:16 10° SSE 13:48:03 13° SE 13:52:19 10° ESE daylight
20 Nov - 15:42:19 10° SSW 15:52:31 34° SSE 15:59:47 10° E daylight
20 Nov - 17:47:11 10° WSW 17:56:58 58° S 18:03:23 10° E visible
20 Nov - 19:53:18 10° W 20:00:58 58° S 20:06:13 10° ESE visible
20 Nov - 21:59:16 10° W 22:04:01 25° SSW 22:07:55 10° SSE visible
